Lamoni, IA

2:52 PM CDT on September 25, 2016 (GMT -0500)
Lamoni Municipal

Weather History for KLWD - May, 2013

Change the Weather History Date:

Thursday, May 30, 2013

  Actual Average Record
Temperature  
Mean Temperature 67 °F 66 °F  
Max Temperature 73 °F 76 °F 90 °F (1989)
Min Temperature 61 °F 56 °F 44 °F (1983)
Degree Days  
Heating Degree Days 0 2  
Month to date heating degree days 180 163  
Since 1 July heating degree days 6060 6058  
Cooling Degree Days 2 3  
Month to date cooling degree days 61 44  
Year to date cooling degree days 73 51  
Growing Degree Days 18 (Base 50)    
Moisture  
Dew Point 61 °F    
Average Humidity 83    
Maximum Humidity 93    
Minimum Humidity 73    
Precipitation  
Precipitation 0.42 in 0.15 in 1.63 in (2008)
Month to date precipitation 6.75 5.10  
Sea Level Pressure  
Sea Level Pressure 29.66 in    
Wind  
Wind Speed 12 mph (South)    
Max Wind Speed 24 mph    
Max Gust Speed 37 mph    
Visibility 9 miles    
Events Rain , Thunderstorm    
T = Trace of Precipitation, MM = Missing Value Source: NWS Daily Summary

Daily Weather History Graph

Daily Weather History Graph

Search for Another Location

Airport or City:

Trip Planner

Search our weather history database for the weather conditions in past years. The results will help you decide how hot, cold, wet, or windy it might be!

Date:

Astronomy

May. 30, 2013 Rise Set
Actual Time 5:47 AM CDT 8:39 PM CDT
Civil Twilight 5:15 AM CDT 9:11 PM CDT
Nautical Twilight 4:34 AM CDT 9:52 PM CDT
Astronomical Twilight 3:47 AM CDT 10:39 PM CDT
Moon 12:39 AM CDT (5/30) 11:58 AM CDT (5/30)
Length of Visible Light 15h 56m
Length of Day
14h 51m
Waning Gibbous, 62% of the Moon is Illuminated
May 30
Waning Gibbous
May 31
Last Quarter
Jun 8
New
Jun 16
First Quarter
Jun 23
Full

Hourly Weather History & Observations

Time (CDT) Temp. Dew Point Humidity Pressure Visibility Wind Dir Wind Speed Gust Speed Precip Events Conditions
12:53 AM 73.0 °F 64.0 °F 73% 29.63 in 10.0 mi SSE 19.6 mph 31.1 mph 0.00 in Rain Light Rain
1:53 AM 71.1 °F 63.0 °F 75% 29.68 in 10.0 mi South 19.6 mph 32.2 mph 0.00 in Rain Light Rain
2:53 AM 66.9 °F 61.0 °F 81% 29.66 in 10.0 mi South 20.7 mph 27.6 mph 0.01 in   Mostly Cloudy
3:53 AM 64.9 °F 60.1 °F 84% 29.66 in 10.0 mi South 13.8 mph 20.7 mph 0.01 in Rain Light Rain
4:53 AM 64.0 °F 60.1 °F 87% 29.65 in 10.0 mi South 11.5 mph 20.7 mph 0.00 in Rain Light Rain
5:53 AM 63.0 °F 59.0 °F 87% 29.64 in 10.0 mi South 13.8 mph 21.9 mph 0.00 in Rain Light Rain
6:53 AM 63.0 °F 60.1 °F 90% 29.68 in 10.0 mi South 11.5 mph - 0.00 in   Mostly Cloudy
7:53 AM 64.9 °F 60.1 °F 84% 29.64 in 10.0 mi South 6.9 mph 16.1 mph N/A   Partly Cloudy
8:50 AM 66.2 °F 60.8 °F 83% 29.69 in 10.0 mi SSE 12.7 mph 19.6 mph N/A   Mostly Cloudy
8:53 AM 66.0 °F 61.0 °F 84% 29.68 in 10.0 mi SSE 18.4 mph 24.2 mph N/A   Mostly Cloudy
9:16 AM 66.2 °F 60.8 °F 83% 29.70 in 10.0 mi South 17.3 mph 25.3 mph N/A   Overcast
9:53 AM 66.9 °F 60.1 °F 79% 29.68 in 10.0 mi South 16.1 mph - N/A   Overcast
10:53 AM 66.0 °F 61.0 °F 84% 29.69 in 10.0 mi South 12.7 mph - 0.00 in Rain Light Rain
11:53 AM 64.9 °F 62.1 °F 90% 29.70 in 5.0 mi South 12.7 mph - 0.06 in Rain Rain
12:12 PM 64.4 °F 62.6 °F 94% 29.72 in 2.5 mi South 13.8 mph 19.6 mph 0.07 in Rain Rain
12:19 PM 64.4 °F 60.8 °F 88% 29.71 in 2.5 mi South 11.5 mph 20.7 mph 0.12 in Rain Rain
12:26 PM 64.4 °F 62.6 °F 94% 29.69 in 4.0 mi South 12.7 mph 18.4 mph 0.14 in Rain Rain
12:39 PM 64.4 °F 60.8 °F 88% 29.67 in 4.0 mi SSE 8.1 mph 17.3 mph 0.17 in Rain Rain
12:53 PM 64.0 °F 61.0 °F 90% 29.66 in 6.0 mi South 9.2 mph - 0.21 in Rain , Thunderstorm Light Rain
12:56 PM 64.4 °F 60.8 °F 88% 29.68 in 5.0 mi SSE 10.4 mph - 0.00 in Rain , Thunderstorm Light Rain
1:04 PM 64.4 °F 60.8 °F 88% 29.66 in 5.0 mi SSE 9.2 mph 19.6 mph 0.02 in Rain Light Rain
1:39 PM 64.4 °F 60.8 °F 88% 29.64 in 9.0 mi SSE 11.5 mph 23.0 mph 0.07 in Rain Light Rain
1:53 PM 64.0 °F 61.0 °F 90% 29.58 in 10.0 mi SE 9.2 mph 19.6 mph 0.07 in Rain Light Rain
2:10 PM 64.4 °F 60.8 °F 88% 29.62 in 10.0 mi SSE 15.0 mph 25.3 mph 0.01 in Rain Light Rain
2:53 PM 63.0 °F 60.1 °F 90% 29.63 in 10.0 mi SSE 15.0 mph 24.2 mph 0.05 in Rain Light Rain
3:53 PM 64.0 °F 59.0 °F 84% 29.65 in 10.0 mi South 13.8 mph 24.2 mph 0.01 in   Clear
4:53 PM 66.9 °F 60.1 °F 79% 29.60 in 10.0 mi South 15.0 mph 23.0 mph N/A   Clear
5:53 PM 66.9 °F 60.1 °F 79% 29.63 in 10.0 mi SSW 12.7 mph - N/A   Clear
6:53 PM 69.1 °F 61.0 °F 75% 29.61 in 10.0 mi South 10.4 mph - N/A   Partly Cloudy
7:23 PM 66.2 °F 60.8 °F 83% 29.65 in 10.0 mi South 10.4 mph - N/A   Mostly Cloudy
7:33 PM 66.2 °F 60.8 °F 83% 29.64 in 10.0 mi South 12.7 mph - N/A   Scattered Clouds
7:53 PM 66.9 °F 61.0 °F 81% 29.63 in 10.0 mi South 8.1 mph - N/A   Partly Cloudy
8:21 PM 66.2 °F 60.8 °F 83% 29.66 in 10.0 mi South 9.2 mph - N/A   Mostly Cloudy
8:53 PM 64.0 °F 61.0 °F 90% 29.66 in 10.0 mi South 5.8 mph - N/A   Scattered Clouds
9:53 PM 64.0 °F 61.0 °F 90% 29.69 in 10.0 mi South 9.2 mph - N/A   Clear
10:53 PM 63.0 °F 61.0 °F 93% 29.68 in 10.0 mi South 5.8 mph - N/A   Clear
11:53 PM 63.0 °F 60.1 °F 90% 29.71 in 10.0 mi South 9.2 mph - N/A   Clear